Wind_Speed
55 53 52 52 54 52 48 45 43 42 43 43 44 45 44 43 41 39 40 41 39 36 33 32 31 31 31 32 32 32 32 32 30 27 25 27 29 30 29 28 26 27 27 27 27 27 26 24 23 24 24 24 24 24 24 24 24 25 25 25 26 26 27 29 31 33 33 34 36 36 35 37 39 40 41 42 43 44 44 42 42 41 41 40 41
58 57 56 54 54 53 50 47 44 43 44 45 45 46 46 45 44 43 42 42 40 38 35 34 33 31 32 32 33 33 33 33 32 29 25 27 29 30 30 28 27 27 28 28 28 28 27 26 24 24 24 25 25 25 25 26 26 26 26 26 26 27 28 30 32 33 33 34 35 36 36 38 40 41 43 44 44 44 42 41 41 41 41 41 41
60 60 59 58 57 55 52 48 46 44 44 44 44 45 45 45 46 45 43 43 41 39 37 36 34 32 32 33 34 34 34 33 33 30 27 27 29 30 30 29 28 28 28 29 28 28 27 27 26 25 25 26 26 25 26 27 27 27 27 27 27 28 28 30 32 33 33 33 35 35 36 38 42 42 43 44 45 44 42 40 40 40 40 41 41
61 60 62 64 61 57 53 50 48 46 45 44 44 44 44 44 46 45 45 44 42 40 39 39 36 33 33 34 34 35 35 34 33 32 29 28 30 31 30 30 29 28 29 29 29 28 28 27 27 26 25 26 26 26 26 27 27 27 27 28 28 29 29 30 32 34 34 34 34 35 36 38 42 44 44 44 44 43 42 41 41 41 41 41 42
63 60 61 64 63 58 53 51 50 48 47 46 45 45 44 43 45 46 45 45 44 42 41 41 38 35 34 35 35 35 36 35 34 33 30 29 31 31 30 30 29 29 29 29 29 29 29 29 29 27 26 27 26 26 27 28 28 28 28 28 28 29 30 31 31 33 35 35 34 35 36 38 41 44 45 44 43 41 40 40 41 42 41 41 42
65 62 60 61 60 57 53 51 52 51 49 48 47 45 44 43 45 46 45 45 45 44 42 42 40 37 36 36 36 36 36 36 34 33 31 31 32 32 30 29 30 30 30 30 30 30 30 30 30 29 28 28 27 26 28 29 30 29 29 29 28 29 31 31 32 33 35 36 35 35 37 39 41 44 44 44 43 40 39 40 40 40 41 41 42
64 63 63 61 58 56 52 51 53 54 51 50 49 47 45 44 45 46 45 46 47 45 43 42 41 40 38 37 37 37 37 36 35 33 32 32 32 32 30 29 30 30 30 30 30 31 31 31 32 31 30 29 27 27 28 30 30 30 30 30 29 30 31 32 32 33 35 36 35 35 37 39 41 43 43 43 42 40 40 40 41 41 41 41 42
64 62 64 64 62 60 57 53 54 55 53 52 52 49 47 47 47 47 46 46 47 47 45 43 43 43 41 38 38 38 37 37 36 33 32 32 32 31 31 30 29 30 30 31 31 31 31 32 32 32 31 30 28 28 29 30 31 31 31 31 30 31 32 33 33 34 35 36 36 35 36 39 41 42 42 42 41 40 40 41 42 42 42 42 42
68 66 66 68 67 65 61 57 56 56 54 54 54 53 50 50 50 49 48 47 48 48 47 45 45 45 43 40 39 39 38 37 36 33 32 32 32 31 31 30 29 30 30 31 32 32 32 33 33 32 31 30 29 28 29 30 31 31 32 32 33 33 34 34 34 34 35 36 37 36 36 38 41 42 42 41 41 40 40 41 42 43 43 42 43
68 68 68 68 67 65 62 58 58 58 56 55 56 56 54 53 52 52 50 49 49 50 49 48 47 46 44 42 40 40 39 38 37 34 31 31 32 31 31 30 30 30 30 31 32 32 33 33 33 32 32 31 29 28 28 29 30 31 32 34 35 34 35 35 35 35 35 36 36 36 37 38 40 41 41 41 41 41 41 41 42 42 42 42 43
68 67 68 68 66 65 62 59 59 61 59 57 57 58 58 57 54 53 52 50 51 51 51 51 50 46 44 42 41 41 40 39 39 35 31 31 32 32 31 30 30 31 31 31 32 33 33 34 33 33 32 31 28 27 27 28 30 31 32 35 36 36 36 36 35 35 36 37 36 35 37 39 40 40 40 40 41 41 41 42 42 42 42 42 43
68 68 68 68 68 66 63 60 60 62 61 59 58 58 59 59 57 55 53 51 52 53 53 53 51 46 44 43 42 42 41 41 40 36 31 31 33 32 30 29 30 31 31 31 32 33 33 34 33 33 33 31 29 28 28 28 30 31 33 35 36 37 37 36 36 35 36 37 36 35 37 40 40 40 40 41 41 41 41 42 42 42 42 42 43
67 69 69 69 70 68 64 61 61 62 62 61 60 59 60 60 59 56 54 52 53 55 55 54 50 46 44 43 42 43 42 42 41 37 31 32 34 33 30 29 30 32 31 31 33 33 33 34 33 33 34 32 30 29 29 29 30 31 33 35 36 37 37 37 36 35 36 36 36 36 38 40 41 40 40 41 42 41 41 42 42 42 42 42 44
66 69 70 70 70 69 66 63 62 63 63 64 62 60 60 60 59 57 55 53 55 57 56 53 49 46 45 44 43 44 44 42 42 38 33 33 35 34 31 29 30 32 31 31 33 33 34 35 34 34 35 34 32 30 30 30 31 33 34 36 37 37 37 37 36 34 36 37 37 37 39 40 41 40 40 41 42 42 41 42 42 42 42 42 44
67 69 71 71 70 70 67 65 64 63 64 65 64 61 60 60 59 58 56 55 56 57 55 52 49 46 46 45 45 46 45 44 43 39 34 34 36 36 32 29 30 32 31 31 32 33 34 35 34 34 35 35 34 33 32 32 33 34 35 36 38 38 37 37 35 34 35 37 38 39 39 40 41 41 40 40 41 41 41 42 42 41 42 43 44
64 66 70 71 70 70 68 67 66 65 64 66 66 63 60 60 59 58 56 55 55 56 56 53 51 49 48 47 48 47 46 46 44 39 34 35 37 37 34 30 30 32 31 30 32 33 34 35 34 35 36 36 36 35 34 35 35 35 36 37 38 38 38 37 36 35 35 36 38 40 40 41 42 41 39 39 40 41 41 42 41 41 42 43 43
61 64 68 70 69 69 68 68 69 68 66 67 67 64 61 59 57 57 57 56 54 55 56 55 52 51 50 50 50 49 47 47 45 39 35 36 38 38 35 31 30 32 31 30 32 34 34 34 35 36 36 36 37 37 36 37 37 36 37 37 38 39 39 37 36 36 36 37 39 41 41 42 42 41 39 38 40 41 41 42 41 41 42 43 43
59 63 67 68 67 66 66 67 70 70 68 67 68 66 62 59 57 54 55 56 54 53 55 55 54 53 52 52 52 50 49 48 46 40 36 37 39 39 36 32 31 32 31 30 32 34 34 33 35 36 36 36 38 39 38 38 37 37 38 38 39 40 39 37 36 37 38 38 40 41 42 42 42 41 39 38 40 41 41 41 40 40 41 42 42
58 61 65 67 67 66 65 67 70 69 67 66 68 67 62 58 56 53 52 54 54 54 56 56 56 55 54 53 53 51 49 49 46 41 37 38 40 40 37 33 31 31 30 30 32 35 34 33 34 36 35 35 37 39 39 38 38 37 37 39 40 39 37 37 39 39 38 38 40 42 42 42 42 40 39 39 40 41 40 39 39 40 41 42 42
56 59 62 65 67 67 67 68 69 68 67 66 67 67 64 59 56 54 52 52 53 55 56 57 57 55 54 54 54 52 49 48 46 42 39 39 41 40 37 34 32 31 31 31 32 34 34 33 34 35 36 35 37 39 40 39 38 37 37 39 39 37 36 39 41 39 37 38 40 41 42 42 41 38 37 38 40 40 39 38 39 40 41 41 42
54 57 59 62 65 66 65 65 67 67 68 68 67 67 65 61 58 55 52 51 52 53 54 55 55 55 54 54 54 52 49 48 46 42 40 40 41 40 37 34 33 32 31 31 33 34 34 32 32 35 37 36 37 40 40 39 38 37 37 38 39 39 40 42 40 36 36 38 40 41 41 41 38 36 36 39 39 38 37 37 39 40 40 41 41
53 55 57 59 61 62 61 61 64 65 68 70 70 68 66 62 59 57 53 51 50 51 52 54 54 55 54 53 53 52 49 48 46 42 39 39 40 39 37 35 35 34 33 33 35 35 34 32 32 36 38 37 37 40 40 40 38 37 37 39 40 42 43 42 38 35 36 38 39 39 39 38 36 35 37 38 37 36 36 37 39 39 39 39 40
51 55 57 56 56 58 59 59 60 61 63 66 68 68 67 64 60 56 53 50 50 50 51 52 53 54 53 53 52 50 48 48 46 41 38 38 38 38 37 37 37 36 35 36 37 37 36 34 34 38 40 39 38 39 41 40 38 37 38 40 41 43 44 41 36 34 35 37 37 38 38 37 35 35 36 35 35 34 35 37 38 39 39 39 39
50 55 58 56 55 55 56 57 57 56 58 62 62 62 64 62 57 53 52 51 50 50 51 52 52 52 52 51 51 48 47 48 46 40 38 38 37 37 38 38 37 37 37 37 38 38 38 37 38 41 42 40 39 40 41 42 41 39 38 40 42 44 43 38 33 32 34 36 36 36 37 35 34 34 34 33 33 33 35 36 37 37 37 38 39
49 53 55 56 57 56 56 56 56 56 59 64 65 63 61 59 54 52 53 52 51 52 52 51 51 51 50 50 49 46 46 47 44 40 38 39 38 38 38 37 36 37 37 37 38 38 38 39 40 42 44 42 40 41 43 44 44 41 39 40 42 42 37 32 31 31 33 34 34 35 35 34 33 32 32 33 33 33 34 35 35 35 36 36 37
50 51 53 55 56 57 59 60 60 58 60 64 65 64 62 59 55 55 55 54 54 54 53 52 51 49 48 48 46 44 45 46 43 39 39 40 39 39 38 36 35 37 37 37 38 38 39 40 41 43 45 44 42 43 46 47 45 41 39 39 38 34 30 29 30 30 31 32 33 33 33 32 32 31 32 33 33 34 34 34 34 34 35 35 36
51 51 53 54 54 55 58 60 60 61 64 65 64 63 62 60 59 59 57 55 56 56 54 52 50 47 45 44 43 43 44 45 41 38 39 41 40 40 39 37 36 38 38 38 39 39 40 43 45 46 46 45 45 46 48 47 43 40 39 37 33 30 29 30 30 30 31 31 32 32 32 31 31 31 32 32 33 34 34 34 33 34 34 34 35
50 53 54 53 53 55 56 55 54 55 59 61 60 60 61 60 59 59 57 55 56 56 53 50 48 45 43 43 43 42 43 42 39 37 39 42 43 43 42 40 38 39 40 41 41 42 43 46 48 49 47 45 46 47 46 43 41 40 38 34 32 31 30 30 30 31 31 31 31 31 30 30 30 31 32 32 32 33 33 34 34 34 34 34 35
48 51 53 52 52 55 57 57 54 48 46 50 53 55 57 59 58 56 55 56 57 55 52 49 47 45 45 45 44 43 40 38 36 37 42 46 47 46 45 42 39 41 43 43 44 46 47 48 50 50 48 44 44 45 45 43 41 40 35 31 31 30 29 29 30 31 31 31 30 30 30 30 30 31 32 33 33 32 32 33 33 33 33 34 35
44 46 49 49 51 53 56 59 59 51 45 48 51 51 53 57 58 57 57 57 57 55 52 50 48 47 46 46 46 43 39 36 38 43 48 50 49 47 44 42 41 44 45 45 46 48 49 48 46 46 45 45 44 45 45 44 41 36 31 29 31 31 29 30 31 31 31 31 29 29 30 30 30 31 32 33 33 32 32 32 31 31 32 33 35
39 41 44 47 49 51 52 55 58 58 55 53 51 49 50 54 55 56 57 57 55 53 51 49 48 48 48 48 46 42 39 40 45 49 50 48 46 45 43 42 42 44 46 48 49 48 45 42 41 41 44 47 48 47 45 41 38 34 32 33 33 31 30 30 31 31 30 30 29 29 30 30 31 32 33 33 33 32 32 31 30 30 32 33 35
37 39 42 44 47 49 50 52 55 55 53 51 49 47 47 50 51 52 53 54 53 52 51 50 49 50 50 49 46 43 43 46 49 49 46 45 45 44 42 42 43 45 47 50 49 47 43 41 41 42 44 48 50 47 43 40 38 37 36 35 32 30 30 31 31 30 29 29 30 30 30 30 31 32 33 33 33 32 32 31 29 29 31 33 35
38 39 41 43 46 47 48 50 53 51 47 44 44 45 46 47 49 49 49 50 50 50 51 51 50 51 51 49 47 46 47 48 47 45 44 45 44 42 42 42 43 44 47 49 49 47 45 43 42 41 43 47 47 44 41 40 40 38 35 33 30 29 30 31 30 29 29 29 30 30 30 31 32 32 33 33 33 32 31 30 29 30 31 33 35
35 37 38 41 44 46 47 49 51 51 47 41 39 40 42 44 46 46 45 47 49 49 50 52 51 51 51 49 47 46 47 46 45 44 45 45 44 43 43 43 43 44 47 49 47 45 43 42 41 41 41 43 44 43 42 42 38 34 32 30 29 29 29 30 30 29 29 29 29 30 30 31 32 33 33 33 33 32 31 29 29 30 32 33 35
32 34 37 39 42 45 47 49 50 49 47 43 40 39 40 41 43 44 43 44 46 48 49 50 50 49 49 47 46 45 45 45 45 45 45 45 45 44 44 44 43 45 47 48 47 45 44 42 42 42 41 42 45 47 46 39 33 31 30 30 28 28 28 29 30 30 29 29 30 30 29 31 33 33 33 32 32 31 30 29 29 30 32 33 35
34 35 35 38 41 42 44 48 49 48 48 47 44 43 43 43 42 44 46 45 45 47 48 48 49 49 48 47 47 46 46 45 45 46 46 46 46 45 43 43 43 44 45 46 46 46 45 43 41 41 43 45 46 47 43 36 31 31 30 29 28 28 28 29 30 30 30 30 30 30 29 30 32 34 34 33 32 31 29 28 29 30 32 33 34
34 34 32 33 37 40 42 45 46 47 51 50 43 38 43 47 45 45 49 49 48 48 49 49 50 49 48 48 49 48 47 47 47 47 47 46 45 44 43 42 42 43 44 45 46 46 45 42 40 40 44 46 45 42 39 35 32 32 31 29 29 29 29 29 30 30 29 29 30 30 31 30 32 34 34 33 32 31 29 28 29 30 32 33 34
34 34 32 30 31 36 41 43 41 42 51 55 45 32 32 42 47 48 49 51 50 49 48 48 48 48 48 50 51 50 49 49 49 48 46 45 44 43 43 43 43 44 45 46 46 45 43 41 39 38 41 43 42 40 38 36 34 33 32 30 29 30 30 30 30 29 28 28 28 30 31 32 32 33 34 33 31 30 29 28 29 31 32 33 34
34 36 36 33 30 31 36 40 39 40 46 52 45 31 23 28 35 40 43 46 48 48 47 46 46 47 48 50 50 48 46 47 48 48 46 44 44 45 45 45 45 45 46 47 46 44 41 40 38 37 38 41 41 39 38 37 35 33 31 30 31 32 31 30 29 28 28 27 28 30 31 32 33 33 33 32 31 30 29 29 30 31 32 33 34
32 36 38 36 33 31 34 39 42 42 42 41 38 31 25 25 29 33 35 39 42 43 44 45 45 47 48 48 47 46 45 45 47 47 46 45 45 46 47 48 47 47 47 46 46 44 41 40 40 38 37 40 43 41 39 39 35 31 30 32 33 32 30 29 28 28 28 28 28 30 31 32 33 33 33 32 31 30 29 29 30 32 32 33 33
28 32 35 36 36 34 35 39 44 46 45 43 40 37 35 34 35 35 35 35 37 39 40 41 44 47 49 49 47 46 46 46 47 47 47 47 48 48 50 50 50 50 48 46 46 45 43 43 44 42 40 42 43 41 39 39 35 30 31 34 33 30 29 29 29 29 29 29 30 31 31 31 32 33 33 33 31 30 30 30 31 32 32 33 33
25 28 30 33 35 36 37 40 44 47 49 49 49 47 44 42 42 42 40 39 39 40 41 42 42 45 49 51 49 48 48 49 51 51 52 51 51 51 51 52 52 52 50 47 46 46 45 46 47 45 40 38 39 40 40 39 35 31 32 34 32 30 29 30 30 30 30 30 31 31 31 31 32 32 33 33 31 29 30 31 32 33 33 33 32
22 24 25 27 31 34 36 38 41 44 46 46 45 44 44 44 45 46 45 45 44 45 46 47 47 48 51 52 52 52 53 54 55 56 56 54 53 53 53 54 55 54 51 48 47 46 46 46 46 43 37 33 36 42 43 40 34 32 33 34 32 30 29 29 29 30 31 31 31 31 31 31 31 32 32 32 31 30 31 32 32 33 34 33 32
19 20 20 21 24 29 33 35 38 40 42 43 43 42 42 42 44 46 47 47 47 48 49 51 51 52 53 54 55 56 57 57 59 59 58 57 56 55 55 56 54 51 49 48 47 46 46 46 44 42 37 33 36 41 42 38 34 33 34 34 32 30 29 29 29 30 31 32 32 32 31 31 31 32 32 32 32 31 32 33 33 33 34 33 32
17 18 19 19 20 23 27 31 33 35 38 40 42 43 44 44 46 48 50 51 52 52 53 53 54 55 57 58 58 59 60 61 62 62 60 59 57 56 55 54 52 49 48 47 46 46 47 46 42 39 36 35 38 42 42 37 33 32 32 32 31 29 29 30 31 31 31 32 32 32 32 32 32 33 33 33 32 33 33 33 34 34 33 33 32
16 15 15 15 18 20 23 26 29 32 34 36 37 39 41 43 45 46 48 49 50 51 52 53 54 56 57 58 59 61 62 62 61 60 58 56 54 53 52 50 49 47 46 45 45 49 50 46 40 36 36 40 43 44 41 35 32 31 32 34 35 33 32 32 32 32 32 33 33 33 32 32 33 34 34 33 33 34 34 34 34 34 33 32 31
19 18 14 12 12 14 18 22 25 28 31 33 35 36 37 38 40 41 43 44 45 47 47 48 49 50 51 52 53 54 55 55 55 54 53 50 48 48 48 47 46 46 45 44 45 48 50 46 39 35 38 42 44 42 37 33 32 33 34 36 36 36 35 35 33 32 32 32 32 32 32 33 34 35 34 33 33 34 35 35 35 34 33 32 31
20 22 20 16 12 11 13 17 21 24 26 29 32 36 38 39 39 40 41 42 42 43 44 44 44 44 43 44 44 44 43 43 45 45 45 45 44 45 45 45 44 44 44 44 44 44 45 42 38 36 38 41 42 40 37 34 33 33 34 35 36 37 37 36 34 32 32 32 32 34 34 35 35 35 34 34 34 34 35 36 35 34 33 32 32
19 22 24 23 19 16 14 14 16 20 23 24 25 26 29 34 37 40 42 43 43 44 44 44 43 42 41 41 41 41 41 40 40 41 41 41 41 41 44 45 46 46 47 48 49 47 45 42 40 39 39 39 38 37 36 35 34 34 35 36 37 37 37 36 34 33 33 33 34 35 36 36 35 35 34 34 34 34 35 36 36 35 33 32 32
20 22 24 24 23 21 18 14 12 15 19 23 24 21 18 20 24 27 30 34 39 42 44 44 43 42 40 40 40 41 41 41 41 41 40 39 40 43 46 49 49 48 47 48 49 49 47 43 41 39 37 35 34 33 33 33 33 34 35 36 36 36 37 36 36 35 35 35 35 36 36 35 34 34 35 36 36 36 36 36 36 35 33 33 32
19 21 22 22 22 22 21 19 16 14 13 17 21 21 19 17 16 16 17 18 22 28 34 38 40 39 38 38 39 41 42 42 41 40 38 38 42 46 48 46 45 44 43 40 39 38 38 37 37 37 36 35 34 34 34 33 34 34 35 36 36 36 36 36 36 36 36 36 36 36 35 34 34 35 35 36 37 37 37 36 35 34 34 33 33
Wind_Direction
236 237 238 240 239 237 235 234 235 237 239 241 245 246 246 249 253 255 254 251 251 254 256 258 263 269 275 281 286 291 296 302 308 308 297 291 293 295 296 298 299 299 297 294 293 293 293 291 289 290 291 292 293 294 295 297 298 300 301 301 300 300 301 302 304 307 313 315 315 318 321 319 322 326 326 325 324 323 325 325 326 326 327 328 327
235 237 239 240 241 240 238 237 236 237 239 242 245 247 248 252 255 254 252 250 249 253 256 258 261 267 273 279 284 289 294 299 305 307 300 290 291 293 294 296 297 298 298 294 293 293 293 290 288 288 288 289 291 293 295 297 299 301 303 302 301 301 301 302 305 308 311 313 315 318 320 320 323 325 326 325 324 323 324 326 326 326 327 329 329
234 236 238 239 239 239 239 239 239 239 241 243 246 248 250 253 254 252 250 248 248 250 255 258 260 266 271 276 282 287 291 296 301 306 302 292 289 290 292 294 294 296 297 295 293 293 293 290 288 287 287 289 291 293 295 297 299 302 303 303 302 302 302 303 306 308 310 312 315 318 319 321 323 325 325 324 323 323 325 326 326 326 328 330 331
234 234 235 236 235 234 235 238 240 241 242 244 246 249 251 252 252 250 248 247 247 248 253 257 260 264 269 274 280 284 288 293 299 304 302 295 289 289 291 291 291 293 295 294 294 293 291 289 287 286 286 288 290 292 293 294 296 300 302 303 304 303 302 304 306 309 311 314 316 318 320 322 322 323 324 323 322 323 325 326 326 328 329 330 330
233 233 233 232 231 232 233 236 239 241 242 244 245 248 250 251 251 249 246 245 245 247 251 256 259 262 267 272 277 282 286 290 296 301 302 297 291 289 290 290 289 290 292 294 293 292 290 288 287 286 286 287 290 291 292 293 296 300 302 302 303 302 303 305 307 309 313 315 316 318 321 322 321 322 323 322 322 323 324 325 327 328 329 329 329
232 232 232 231 231 234 235 238 241 241 241 242 244 246 248 250 249 246 244 244 244 246 250 255 259 262 265 270 275 279 284 288 293 298 301 298 293 289 289 288 287 288 291 293 293 291 290 289 288 288 288 289 291 292 292 294 297 300 300 301 302 301 303 306 308 310 313 315 316 317 320 322 321 321 322 322 322 323 324 325 327 328 328 329 329
232 233 231 229 230 234 239 243 244 243 242 241 243 244 245 247 247 245 244 244 245 246 250 254 258 261 263 268 272 277 281 286 291 296 299 297 293 290 288 286 286 288 290 292 293 291 290 289 289 290 290 291 293 293 293 294 297 299 300 301 302 302 304 307 309 312 313 314 315 317 320 322 321 321 322 321 321 322 323 325 327 328 329 329 329
229 230 229 229 230 235 241 243 243 243 243 242 241 242 242 243 244 244 245 246 246 247 250 253 256 259 262 266 270 274 279 284 289 294 296 294 292 289 287 285 285 287 289 291 292 291 290 290 290 290 291 292 294 295 295 296 297 299 300 301 303 304 305 306 309 311 312 312 313 317 320 320 321 321 322 321 320 321 323 326 327 329 329 330 329
229 229 229 231 234 237 240 240 239 240 242 242 241 241 241 242 243 244 246 247 246 247 249 252 254 257 261 264 268 273 278 282 287 292 293 292 290 288 286 286 286 286 287 288 290 291 290 289 290 290 291 293 296 297 298 298 299 300 301 301 302 303 304 306 308 309 309 309 311 316 319 319 320 322 321 320 319 320 323 325 327 328 329 329 329
231 231 232 233 235 237 237 238 237 237 238 240 241 241 241 242 243 245 247 247 245 246 248 251 252 255 260 263 267 272 277 280 285 289 290 289 287 286 285 285 285 285 285 287 288 290 290 289 289 290 291 293 297 298 300 300 301 302 302 301 302 302 302 304 305 306 307 308 310 315 318 319 321 322 321 320 319 320 323 325 326 327 328 328 328
232 232 233 234 236 236 236 236 237 238 237 238 240 241 241 242 243 244 247 247 245 244 247 249 251 254 258 262 267 271 275 279 283 286 287 285 284 285 284 284 285 284 285 285 286 288 289 289 289 289 290 293 296 298 300 302 303 304 303 303 303 302 301 302 303 304 305 307 310 314 317 318 321 322 321 320 319 320 323 324 326 327 327 327 327
233 232 233 234 235 236 235 235 236 237 237 237 239 240 241 241 242 243 245 246 244 244 246 248 251 253 256 260 266 270 273 277 281 284 283 281 282 283 283 284 284 284 285 285 285 287 289 289 289 288 289 291 294 297 299 302 304 306 306 306 305 302 300 300 301 303 305 307 310 314 316 317 320 321 320 319 320 322 323 324 325 326 326 327 328
233 232 232 233 235 236 236 235 235 236 238 239 238 239 240 240 240 242 244 245 244 243 245 248 250 252 255 260 264 268 271 275 278 281 280 278 280 282 282 284 284 284 285 285 284 286 288 289 289 288 288 290 293 295 298 300 303 305 308 309 308 303 299 297 299 303 305 306 308 312 314 316 318 320 320 318 320 323 324 324 325 326 326 327 327
232 233 232 233 234 235 236 236 235 237 239 239 238 239 240 240 240 241 243 244 244 243 245 248 251 252 255 260 264 266 270 272 275 278 277 276 279 282 282 283 284 284 285 285 285 285 287 289 289 287 287 289 291 292 294 297 300 303 306 309 310 308 302 297 298 302 302 302 306 309 312 314 317 318 318 318 321 323 324 324 325 325 326 327 328
230 233 234 234 234 235 235 236 236 237 239 238 237 239 240 240 240 240 242 244 244 244 246 248 250 252 255 259 263 265 268 270 272 274 274 275 278 280 281 282 283 284 285 285 285 285 286 288 289 288 287 287 289 290 292 295 298 301 304 307 309 311 308 300 297 299 300 301 304 308 310 313 315 316 317 318 321 323 324 324 325 325 326 327 328
228 231 233 234 235 236 236 236 237 237 238 237 238 239 239 240 240 239 241 243 244 244 245 247 250 253 256 259 262 265 267 268 270 272 272 274 277 279 280 281 282 283 284 285 285 284 285 287 290 289 287 287 287 288 290 294 297 300 303 305 306 310 310 304 298 298 299 300 302 306 309 312 313 314 315 318 321 323 323 324 325 326 326 327 327
226 229 232 233 235 237 237 238 238 237 237 237 237 237 238 239 240 239 240 241 243 244 245 248 251 254 257 260 262 264 265 266 269 270 269 272 275 278 279 280 281 282 284 285 285 284 284 288 289 289 289 288 286 286 289 292 295 297 301 303 306 308 307 303 299 296 296 298 301 305 308 310 312 312 313 317 320 322 323 323 324 325 326 326 327
225 229 232 233 234 235 237 238 238 238 237 236 236 236 237 239 240 240 240 241 242 244 245 248 251 253 257 259 260 262 263 265 267 267 267 270 274 277 279 280 280 281 283 285 284 282 284 287 288 289 290 288 286 287 288 290 293 297 299 301 305 306 302 300 299 295 294 296 300 303 307 309 310 310 312 316 319 321 322 322 323 324 325 325 326
225 228 231 232 233 234 235 236 238 239 239 238 237 236 236 237 239 239 240 240 241 243 245 248 251 253 255 257 258 260 262 263 265 266 265 269 273 276 279 279 278 280 283 284 282 281 283 284 286 288 290 289 288 287 288 289 291 295 298 300 303 301 298 300 300 294 291 294 298 302 306 307 308 309 311 315 318 320 320 321 322 324 324 325 326
226 227 229 231 232 233 233 234 236 237 238 238 239 238 235 236 238 238 238 239 240 242 244 247 250 252 253 254 256 258 260 262 263 264 264 267 272 276 278 278 278 280 282 281 280 281 282 283 285 287 288 288 287 286 286 288 290 294 298 301 302 299 299 304 302 292 288 292 298 302 305 305 306 309 312 315 318 319 319 320 322 323 324 324 325
225 225 227 230 232 232 233 236 237 237 236 235 235 235 233 233 235 236 237 238 239 241 243 245 248 250 251 252 254 257 259 260 261 261 263 267 272 275 277 277 277 278 279 279 279 280 281 284 286 285 284 285 285 284 285 288 290 294 297 299 299 298 301 305 301 291 288 293 299 302 304 304 306 310 314 316 317 317 319 320 322 323 323 324 325
225 223 226 229 231 231 232 236 239 239 238 236 234 232 231 231 232 234 235 237 238 240 241 243 245 248 249 251 252 255 257 258 259 260 262 266 271 275 276 275 274 275 276 277 278 280 282 284 284 282 281 282 282 284 286 288 290 292 293 293 294 296 301 304 297 288 289 295 299 301 302 303 307 312 315 315 316 316 318 320 321 321 322 323 324
226 223 223 227 230 229 228 232 236 238 238 237 236 235 233 231 231 233 234 236 238 239 240 241 243 245 247 249 251 253 254 256 257 259 262 265 270 273 273 272 273 275 276 277 278 280 281 283 282 280 280 281 282 283 285 286 288 289 290 292 293 296 300 299 291 286 290 295 297 299 300 303 308 313 314 315 315 316 318 320 320 321 322 323 324
229 226 224 225 228 230 229 230 233 235 234 232 233 236 235 232 232 234 235 236 238 239 239 240 242 244 246 247 249 251 252 253 255 257 260 263 266 269 271 272 273 275 276 278 279 280 281 281 280 278 278 279 280 281 282 283 284 286 288 291 294 296 296 291 284 284 290 294 296 298 300 303 309 313 313 314 315 316 318 319 320 321 322 323 323
229 227 226 225 227 229 230 229 229 232 235 235 235 235 235 233 235 236 235 235 237 238 238 240 242 243 245 246 248 248 249 251 254 256 257 260 263 266 269 271 273 274 277 279 281 282 282 280 278 276 275 276 277 278 278 278 280 284 289 292 294 294 289 282 280 285 289 293 296 299 301 305 309 312 312 314 315 317 318 318 318 319 320 320 322
231 228 227 226 228 229 230 231 231 232 235 238 237 235 234 236 237 236 235 234 236 237 238 240 241 243 244 245 246 246 247 249 251 252 254 257 260 263 266 268 270 273 277 281 284 286 284 280 275 273 271 272 273 273 274 275 278 283 289 291 290 286 280 277 280 285 288 293 297 299 302 306 310 311 312 315 317 316 316 317 318 318 318 319 322
233 231 228 227 229 230 230 232 235 236 238 238 237 236 235 235 234 233 232 232 233 235 237 239 241 243 244 244 244 244 246 247 248 250 253 255 257 260 262 264 267 271 276 281 284 286 285 279 274 271 270 269 269 270 272 275 279 284 287 286 281 276 274 277 281 284 288 293 297 300 303 307 309 311 313 316 317 316 316 318 319 318 319 321 323
235 235 232 229 229 230 229 228 231 237 240 239 237 235 233 230 230 231 231 231 233 235 237 239 242 242 243 243 243 244 246 246 246 248 252 254 255 256 258 261 266 271 276 280 282 284 284 280 275 271 268 267 266 268 272 274 278 283 284 279 273 272 273 276 280 284 289 294 298 301 304 307 309 311 314 316 316 315 316 318 318 318 320 322 324
238 238 236 233 230 228 227 226 226 232 240 241 238 234 230 227 227 228 229 230 232 233 235 237 239 240 240 241 242 244 245 245 244 245 249 250 251 252 256 260 266 270 274 278 281 282 284 284 279 273 269 267 268 269 270 272 277 281 279 271 269 271 272 274 279 284 289 295 299 302 304 306 308 311 313 315 316 316 316 316 317 318 320 323 324
239 239 237 235 232 230 229 229 228 229 235 241 242 238 232 228 226 225 225 228 230 231 232 234 235 235 237 238 239 241 241 238 237 240 243 246 250 253 257 261 264 268 272 277 279 281 284 285 280 273 268 269 271 271 271 273 276 275 271 269 271 272 271 273 278 283 289 295 301 303 304 305 307 310 313 314 315 316 316 315 315 317 320 323 324
239 238 236 234 233 232 231 232 231 230 230 234 238 240 237 232 227 224 223 226 228 229 230 231 232 233 234 236 237 236 234 231 233 237 241 246 252 255 259 262 264 267 272 275 278 283 285 283 277 271 267 268 271 272 271 271 270 268 270 274 274 271 270 273 277 282 290 297 302 303 303 304 306 310 313 313 314 315 314 314 315 318 321 323 323
239 236 234 234 234 233 232 231 232 233 233 233 236 240 238 230 226 225 224 225 228 229 228 229 231 232 233 235 233 229 227 229 234 239 243 248 252 255 258 262 265 269 272 275 279 285 287 282 276 273 270 270 272 270 266 266 268 268 271 272 269 267 269 272 276 283 292 299 302 303 302 303 305 309 312 312 313 313 313 313 316 319 322 323 323
238 234 233 233 233 233 234 232 230 231 234 236 237 238 235 227 222 221 222 224 227 228 228 229 230 230 232 232 230 227 227 231 236 240 244 247 251 254 258 263 267 270 273 276 280 285 286 281 277 274 273 271 270 267 265 270 273 271 267 265 263 265 268 271 277 286 294 299 301 301 300 302 304 308 311 311 311 311 311 312 315 319 321 322 322
235 233 233 232 232 233 234 232 230 229 230 234 236 236 232 225 219 217 218 223 226 227 228 230 230 230 230 229 228 227 229 233 237 241 245 248 250 253 258 263 268 271 273 276 280 284 284 281 277 277 274 267 263 265 271 276 273 264 260 261 262 263 267 272 280 288 295 299 299 298 299 301 303 307 309 310 309 310 310 311 314 318 321 321 322
232 233 231 230 231 233 233 232 232 231 230 231 235 235 228 221 219 218 218 221 224 226 228 229 228 228 228 228 228 229 232 235 239 242 245 248 251 254 260 265 268 271 274 276 279 281 281 278 276 275 271 264 263 268 273 271 262 255 257 260 260 261 266 273 281 288 294 297 296 295 297 300 302 306 308 308 308 309 309 309 312 317 319 320 320
231 232 230 229 230 231 231 231 232 232 229 228 231 233 226 220 219 220 218 219 221 221 222 223 223 224 226 227 228 231 233 236 239 241 243 247 252 258 263 267 269 272 274 275 278 279 279 278 277 273 266 264 267 270 268 261 254 256 259 259 258 261 266 273 281 288 293 295 294 294 295 298 301 305 306 307 307 307 307 307 311 315 317 317 318
234 230 229 232 232 229 228 230 232 231 229 229 232 230 221 217 220 221 217 216 216 216 219 221 220 221 225 228 230 232 234 236 238 240 243 248 255 260 264 267 270 272 273 275 278 278 276 276 276 271 266 267 269 268 262 258 257 258 259 258 259 262 267 272 280 287 291 292 293 293 294 297 301 303 305 305 305 305 304 305 309 313 315 315 317
238 233 232 239 241 231 226 228 229 226 227 232 239 239 222 216 219 222 220 217 216 218 222 224 221 221 226 230 231 231 233 234 238 241 246 251 257 260 263 266 269 271 273 276 277 275 273 273 272 269 268 267 264 259 256 257 258 258 258 259 260 262 266 272 279 285 288 290 290 291 292 296 300 302 303 303 303 303 302 304 307 311 312 314 316
244 240 240 247 251 240 230 228 226 224 225 231 239 244 233 218 217 220 220 218 217 219 221 221 220 223 229 231 231 232 234 236 240 244 248 252 255 258 262 266 269 271 274 276 274 271 269 270 271 270 270 266 259 254 254 256 256 255 256 257 259 261 266 273 280 285 287 288 288 289 291 295 298 301 301 301 301 300 300 302 305 308 310 312 314
248 248 247 249 251 244 234 228 225 223 223 225 230 236 238 229 221 220 218 216 216 218 218 218 221 227 231 233 234 236 238 240 242 246 249 252 255 259 263 267 270 272 274 274 271 268 267 269 270 271 270 263 256 252 252 253 252 250 252 255 258 262 269 277 281 285 287 288 287 288 289 293 297 299 299 299 299 298 298 300 303 306 308 311 313
251 252 252 250 249 244 237 231 228 226 228 232 238 244 245 238 229 225 223 220 219 220 222 223 225 229 234 237 239 241 243 246 248 250 253 255 257 261 265 268 271 272 273 271 267 266 267 269 270 271 268 261 255 251 248 248 248 248 251 257 261 266 272 277 280 284 287 288 287 287 289 293 296 298 297 297 297 296 296 299 302 304 306 309 311
254 253 253 251 249 246 240 236 234 235 239 243 248 251 250 244 237 235 236 236 234 232 232 233 233 234 239 243 245 246 248 250 251 253 254 256 258 261 264 267 270 271 270 267 264 264 267 270 271 270 266 259 253 249 246 245 245 249 255 261 265 268 272 275 279 284 287 288 288 288 290 292 295 296 296 295 294 294 295 298 301 303 305 307 310
255 254 254 251 248 246 243 239 237 239 242 244 246 247 247 245 242 240 242 244 244 244 242 241 240 240 242 246 248 250 251 252 253 254 255 256 258 261 263 266 267 268 267 263 261 263 268 269 268 267 263 253 244 242 244 244 246 251 260 266 269 271 272 275 279 284 287 287 287 288 289 291 293 294 294 293 292 292 294 297 299 301 303 306 309
257 257 258 255 249 244 242 241 240 239 240 241 241 241 242 242 241 241 242 244 245 246 245 244 243 244 245 246 249 251 252 253 254 256 257 259 260 261 263 264 264 263 261 259 258 262 265 263 261 260 258 247 237 238 241 244 249 257 266 271 271 269 270 275 280 283 285 286 287 287 288 290 291 291 291 291 291 292 294 296 297 299 302 305 307
261 263 267 267 259 250 244 242 242 242 241 240 240 240 240 240 241 242 243 244 246 246 246 245 246 247 248 249 250 251 253 254 256 257 259 260 261 262 262 261 260 258 256 255 258 262 263 258 255 254 248 237 232 236 240 245 253 262 268 268 266 265 270 277 281 283 284 285 286 286 287 288 289 289 289 289 290 292 293 294 296 298 301 303 305
254 257 264 268 266 261 253 246 244 244 244 244 244 243 242 242 243 243 244 245 246 247 247 248 248 248 249 250 251 252 253 254 256 257 258 259 259 259 258 256 254 253 253 254 258 261 259 253 247 242 235 229 230 236 241 247 255 259 257 256 260 267 275 281 283 285 285 285 285 284 284 285 287 287 288 288 289 290 291 292 295 297 299 301 303
246 243 243 245 253 260 258 251 247 246 246 246 247 247 247 247 247 247 247 247 246 246 247 248 248 249 250 251 252 253 254 255 255 255 256 256 255 254 254 252 251 251 253 255 257 258 254 246 238 232 228 227 231 236 242 249 254 253 250 252 260 270 278 282 284 285 285 284 283 283 283 285 286 286 286 286 287 288 289 291 294 297 298 299 300
249 244 243 242 242 251 259 256 252 250 249 248 248 248 249 249 249 249 248 247 246 246 246 247 248 249 250 251 250 251 252 253 253 253 252 252 251 250 251 251 249 250 250 250 251 252 249 241 232 226 225 227 233 240 247 251 250 248 249 255 263 271 276 280 283 284 284 283 282 282 283 284 285 284 284 285 286 287 289 292 294 296 296 297 298
253 251 251 252 253 255 262 263 256 251 249 248 247 247 247 248 248 248 249 249 248 247 247 248 249 250 250 249 247 245 244 246 248 248 248 247 246 246 247 249 251 253 252 249 247 247 244 235 226 223 226 232 239 247 251 249 246 247 253 261 268 272 277 280 283 283 282 281 280 281 283 283 283 284 284 285 286 287 289 291 293 294 294 295 296
256 257 258 259 259 260 261 261 255 248 244 242 240 239 240 244 247 248 249 250 250 250 250 249 248 247 247 247 244 241 239 239 240 241 243 244 244 245 247 249 250 247 241 236 235 235 233 228 224 225 231 237 241 244 245 246 249 255 261 266 270 273 277 279 281 281 280 279 280 281 282 282 282 283 284 285 285 287 289 290 291 292 292 293 293
259 260 261 263 262 262 260 256 250 244 236 230 228 228 230 235 241 241 239 239 242 246 249 249 248 248 249 248 245 243 241 241 240 240 241 242 242 240 239 238 234 228 222 219 220 223 224 225 227 230 233 235 236 238 244 252 258 263 266 268 271 273 275 276 278 279 281 282 282 282 282 282 282 282 282 283 285 287 289 289 290 290 290 291 291
Height
5756 5759 5761 5764 5766 5770 5774 5778 5781 5784 5786 5789 5791 5793 5794 5796 5798 5800 5802 5803 5805 5807 5809 5810 5811 5812 5812 5812 5813 5813 5813 5814 5814 5813 5813 5812 5811 5810 5809 5809 5808 5807 5806 5805 5804 5804 5804 5803 5802 5801 5799 5799 5798 5797 5797 5796 5794 5793 5792 5791 5789 5787 5786 5784 5782 5781 5780 5778 5775 5774 5772 5769 5767 5765 5763 5761 5757 5753 5750 5748 5745 5741 5738 5735 5731
5751 5754 5757 5759 5761 5764 5768 5772 5776 5779 5781 5784 5786 5788 5790 5792 5794 5796 5798 5800 5802 5803 5805 5806 5808 5809 5809 5809 5809 5810 5810 5811 5811 5811 5810 5809 5808 5807 5806 5806 5806 5805 5804 5803 5802 5802 5801 5800 5800 5799 5798 5797 5796 5795 5794 5793 5792 5791 5789 5788 5787 5785 5784 5782 5780 5779 5778 5776 5773 5772 5770 5767 5764 5762 5759 5756 5754 5751 5748 5745 5742 5739 5736 5733 5729
5745 5748 5751 5753 5756 5758 5762 5766 5771 5774 5776 5779 5781 5784 5786 5788 5790 5792 5794 5796 5798 5799 5801 5802 5803 5805 5805 5806 5806 5806 5807 5808 5808 5808 5807 5807 5806 5805 5804 5804 5803 5803 5802 5801 5800 5800 5799 5798 5797 5797 5795 5794 5794 5794 5792 5791 5789 5788 5787 5786 5785 5783 5781 5779 5777 5776 5776 5774 5772 5770 5768 5765 5761 5759 5757 5753 5750 5748 5745 5742 5740 5737 5733 5730 5727
5740 5743 5746 5747 5748 5751 5756 5761 5764 5768 5771 5774 5777 5779 5782 5784 5785 5788 5790 5792 5794 5795 5796 5797 5799 5801 5802 5802 5803 5803 5804 5805 5805 5805 5804 5804 5803 5802 5802 5801 5801 5801 5799 5799 5798 5798 5797 5796 5795 5794 5793 5793 5792 5792 5790 5789 5787 5787 5785 5783 5782 5780 5778 5777 5775 5773 5772 5772 5770 5768 5766 5763 5758 5756 5754 5751 5748 5744 5741 5739 5736 5734 5730 5727 5724
5734 5738 5742 5744 5743 5746 5751 5756 5759 5763 5766 5769 5772 5775 5777 5779 5781 5783 5785 5788 5790 5791 5792 5792 5795 5797 5798 5799 5799 5800 5800 5802 5802 5802 5802 5801 5800 5799 5799 5799 5798 5798 5797 5796 5796 5795 5794 5793 5793 5792 5792 5791 5790 5789 5788 5786 5785 5784 5782 5781 5779 5777 5775 5774 5773 5771 5769 5769 5767 5765 5763 5761 5756 5753 5751 5748 5746 5743 5739 5736 5732 5729 5727 5724 5721
5728 5733 5738 5741 5742 5744 5748 5752 5755 5758 5762 5765 5768 5771 5773 5775 5776 5778 5781 5783 5785 5786 5787 5788 5790 5793 5794 5795 5795 5796 5797 5798 5799 5799 5799 5798 5797 5796 5796 5796 5795 5794 5794 5794 5793 5793 5792 5791 5790 5790 5789 5788 5787 5786 5785 5783 5782 5781 5779 5777 5776 5774 5772 5771 5770 5769 5767 5766 5764 5762 5760 5758 5754 5751 5748 5745 5742 5740 5737 5734 5731 5727 5724 5721 5718
5722 5727 5731 5736 5739 5741 5744 5749 5751 5754 5758 5761 5763 5766 5768 5770 5771 5774 5777 5779 5781 5782 5783 5785 5786 5788 5790 5791 5791 5792 5793 5795 5796 5796 5796 5795 5793 5793 5793 5793 5792 5791 5791 5791 5790 5790 5789 5788 5788 5787 5786 5785 5784 5783 5781 5780 5779 5778 5776 5775 5773 5772 5770 5769 5768 5766 5764 5762 5761 5760 5757 5755 5752 5748 5746 5742 5739 5737 5734 5731 5728 5726 5722 5719 5715
5716 5720 5724 5729 5733 5735 5740 5744 5747 5749 5753 5756 5759 5761 5763 5765 5767 5769 5772 5774 5777 5778 5779 5781 5782 5784 5785 5787 5788 5788 5790 5791 5792 5793 5793 5792 5791 5790 5790 5790 5790 5789 5788 5788 5788 5787 5786 5785 5785 5784 5783 5782 5781 5779 5778 5777 5776 5775 5774 5772 5771 5769 5768 5766 5765 5763 5762 5759 5758 5757 5755 5752 5749 5746 5743 5740 5737 5734 5731 5728 5724 5722 5719 5716 5713
5710 5714 5718 5723 5727 5731 5735 5738 5741 5744 5747 5750 5753 5755 5757 5760 5762 5764 5766 5770 5772 5774 5775 5776 5778 5779 5781 5782 5783 5784 5786 5787 5788 5790 5790 5789 5788 5787 5787 5787 5787 5786 5786 5785 5785 5784 5784 5783 5782 5781 5780 5779 5778 5777 5775 5774 5773 5773 5771 5769 5768 5766 5765 5764 5762 5760 5758 5756 5754 5753 5752 5749 5746 5743 5740 5737 5734 5732 5729 5725 5722 5718 5715 5712 5709
5702 5708 5711 5716 5720 5725 5729 5732 5735 5737 5740 5744 5747 5750 5753 5755 5756 5758 5761 5764 5767 5769 5770 5771 5773 5775 5776 5778 5779 5780 5782 5783 5785 5786 5786 5786 5785 5784 5784 5784 5783 5783 5782 5782 5782 5782 5781 5780 5779 5779 5777 5776 5775 5774 5773 5772 5771 5770 5768 5766 5765 5763 5762 5760 5759 5757 5755 5753 5752 5750 5748 5746 5744 5741 5737 5735 5732 5729 5727 5723 5719 5716 5712 5709 5705
5695 5700 5704 5709 5713 5717 5722 5727 5730 5731 5734 5738 5741 5744 5747 5749 5751 5754 5756 5759 5762 5764 5765 5766 5768 5771 5773 5773 5774 5776 5778 5779 5780 5782 5783 5782 5781 5781 5781 5780 5780 5779 5779 5779 5779 5778 5778 5777 5777 5776 5774 5773 5772 5771 5770 5769 5768 5767 5765 5763 5762 5760 5758 5757 5755 5754 5752 5750 5749 5747 5745 5743 5741 5738 5735 5732 5729 5726 5723 5720 5717 5713 5710 5706 5703
5687 5693 5698 5702 5705 5709 5715 5721 5724 5726 5729 5732 5736 5739 5741 5743 5746 5749 5751 5753 5757 5759 5760 5761 5764 5767 5768 5769 5770 5772 5773 5775 5776 5778 5779 5778 5777 5777 5777 5777 5776 5776 5776 5776 5775 5775 5775 5774 5773 5773 5771 5770 5769 5768 5767 5766 5765 5764 5762 5760 5759 5757 5755 5753 5752 5751 5749 5747 5746 5744 5742 5739 5738 5736 5732 5729 5727 5724 5721 5717 5714 5710 5707 5703 5700
5680 5685 5691 5695 5698 5702 5709 5714 5718 5720 5723 5727 5731 5733 5734 5736 5740 5743 5746 5749 5751 5753 5754 5756 5759 5762 5764 5765 5767 5768 5769 5771 5772 5773 5775 5774 5774 5773 5774 5774 5773 5772 5772 5773 5772 5771 5771 5770 5770 5769 5768 5767 5766 5765 5764 5763 5762 5761 5759 5758 5756 5754 5751 5750 5749 5748 5746 5744 5743 5741 5739 5736 5734 5732 5729 5726 5724 5721 5718 5714 5711 5707 5704 5701 5697
5674 5677 5683 5688 5692 5696 5702 5707 5711 5713 5716 5720 5724 5727 5728 5730 5734 5738 5741 5743 5745 5747 5750 5752 5755 5758 5759 5761 5762 5763 5765 5767 5768 5769 5770 5770 5769 5769 5769 5770 5769 5768 5769 5769 5768 5768 5767 5767 5767 5767 5765 5764 5763 5762 5761 5760 5759 5758 5756 5755 5753 5751 5748 5746 5746 5745 5742 5741 5739 5738 5735 5733 5731 5729 5726 5723 5720 5718 5715 5711 5708 5705 5702 5698 5694
5667 5670 5675 5680 5685 5690 5696 5700 5704 5706 5710 5714 5718 5721 5722 5724 5728 5732 5735 5737 5740 5743 5745 5747 5750 5753 5754 5756 5758 5759 5761 5763 5764 5765 5766 5765 5765 5765 5765 5766 5766 5764 5765 5765 5764 5764 5764 5763 5764 5763 5762 5761 5760 5759 5758 5757 5755 5754 5753 5752 5750 5748 5746 5743 5742 5742 5740 5738 5736 5734 5732 5730 5728 5726 5723 5720 5718 5715 5711 5708 5705 5702 5699 5695 5692
5661 5664 5668 5673 5679 5684 5690 5694 5696 5699 5703 5707 5711 5714 5716 5718 5722 5726 5729 5732 5735 5738 5740 5742 5745 5748 5750 5751 5753 5754 5757 5758 5759 5761 5762 5761 5760 5760 5761 5762 5762 5761 5761 5762 5761 5760 5760 5760 5760 5760 5759 5757 5756 5755 5754 5753 5752 5751 5750 5749 5747 5745 5743 5741 5739 5738 5737 5735 5733 5731 5729 5727 5725 5723 5721 5718 5715 5712 5708 5705 5702 5699 5696 5692 5689
5654 5658 5661 5667 5672 5678 5684 5687 5689 5692 5696 5699 5703 5707 5710 5713 5716 5720 5723 5726 5729 5732 5734 5737 5740 5742 5744 5746 5747 5749 5752 5753 5755 5757 5758 5756 5756 5756 5756 5758 5758 5757 5757 5758 5757 5756 5756 5757 5756 5755 5755 5754 5752 5751 5750 5749 5748 5748 5747 5745 5744 5742 5740 5738 5736 5734 5733 5732 5730 5727 5726 5724 5721 5720 5718 5715 5712 5708 5705 5702 5699 5696 5693 5689 5686
5648 5652 5656 5661 5667 5672 5676 5679 5680 5684 5688 5692 5696 5700 5703 5706 5710 5714 5717 5720 5724 5727 5729 5732 5734 5736 5738 5740 5742 5744 5747 5748 5750 5752 5753 5752 5751 5751 5752 5753 5754 5753 5753 5754 5753 5752 5752 5753 5752 5751 5751 5750 5748 5747 5746 5746 5745 5744 5743 5742 5741 5739 5737 5734 5733 5731 5730 5728 5726 5724 5723 5721 5718 5716 5714 5712 5709 5706 5702 5699 5696 5693 5690 5687 5684
5642 5646 5650 5655 5660 5665 5668 5670 5672 5676 5682 5686 5690 5693 5697 5700 5703 5707 5711 5715 5718 5721 5723 5725 5728 5730 5733 5735 5736 5738 5741 5743 5745 5747 5748 5747 5747 5747 5747 5749 5749 5749 5750 5750 5749 5747 5748 5749 5748 5747 5747 5746 5744 5743 5742 5742 5741 5740 5739 5738 5737 5735 5734 5732 5730 5728 5726 5725 5723 5721 5720 5717 5715 5713 5711 5709 5706 5702 5699 5696 5693 5690 5687 5684 5681
5637 5640 5644 5647 5652 5656 5660 5661 5663 5669 5675 5679 5683 5687 5690 5694 5696 5700 5704 5708 5711 5714 5716 5719 5721 5724 5727 5729 5730 5733 5736 5738 5741 5742 5743 5742 5742 5742 5743 5744 5745 5745 5745 5745 5744 5743 5744 5744 5744 5742 5742 5742 5741 5739 5737 5737 5737 5736 5735 5734 5732 5731 5730 5729 5727 5725 5723 5722 5720 5718 5716 5714 5712 5710 5708 5705 5702 5699 5696 5693 5690 5687 5684 5681 5678
5630 5634 5637 5640 5644 5649 5655 5657 5659 5662 5666 5669 5673 5677 5680 5684 5688 5692 5696 5701 5704 5707 5710 5713 5715 5718 5720 5723 5724 5727 5730 5733 5736 5737 5738 5738 5738 5738 5738 5739 5740 5740 5741 5741 5740 5739 5739 5741 5740 5738 5737 5738 5737 5734 5733 5733 5733 5732 5731 5730 5728 5726 5726 5725 5723 5721 5720 5718 5717 5715 5713 5710 5709 5707 5704 5701 5698 5696 5693 5690 5687 5684 5681 5678 5675
5624 5628 5631 5635 5638 5644 5650 5653 5654 5658 5661 5663 5666 5668 5670 5674 5679 5684 5689 5694 5698 5701 5704 5707 5709 5711 5714 5716 5719 5721 5724 5728 5730 5732 5732 5733 5733 5733 5734 5734 5735 5735 5736 5736 5736 5735 5736 5737 5737 5734 5732 5733 5733 5730 5729 5729 5729 5728 5727 5725 5723 5722 5721 5721 5719 5717 5716 5715 5714 5712 5709 5707 5706 5704 5701 5698 5695 5692 5690 5687 5684 5682 5679 5676 5673
5619 5622 5626 5629 5633 5638 5644 5646 5647 5651 5655 5658 5662 5665 5665 5667 5672 5678 5683 5687 5691 5695 5698 5700 5703 5705 5707 5710 5713 5715 5719 5722 5725 5727 5728 5728 5729 5729 5729 5729 5730 5731 5732 5731 5731 5731 5732 5733 5732 5729 5726 5727 5728 5726 5725 5724 5724 5724 5723 5721 5719 5718 5717 5716 5715 5714 5712 5711 5710 5708 5706 5704 5702 5700 5697 5695 5692 5689 5686 5684 5681 5678 5675 5673 5670
5614 5616 5620 5623 5626 5630 5636 5640 5642 5645 5648 5649 5653 5658 5660 5663 5667 5672 5677 5681 5685 5688 5691 5694 5696 5699 5701 5704 5707 5710 5713 5717 5720 5722 5723 5723 5724 5724 5724 5724 5726 5726 5726 5726 5726 5727 5727 5728 5727 5724 5722 5722 5723 5722 5721 5719 5719 5719 5718 5716 5715 5714 5712 5711 5711 5710 5709 5708 5707 5705 5702 5701 5699 5696 5694 5691 5689 5687 5684 5682 5678 5675 5672 5669 5667
5609 5611 5614 5617 5619 5622 5628 5632 5636 5638 5639 5639 5643 5649 5654 5658 5662 5666 5670 5674 5678 5681 5685 5687 5690 5693 5696 5698 5701 5704 5708 5712 5715 5717 5718 5718 5719 5719 5719 5720 5721 5721 5721 5721 5721 5721 5722 5722 5721 5718 5717 5717 5717 5717 5715 5714 5714 5714 5714 5712 5710 5709 5707 5707 5707 5707 5705 5704 5703 5701 5699 5697 5695 5693 5691 5689 5686 5684 5682 5680 5677 5674 5671 5668 5665
5603 5606 5609 5611 5613 5616 5620 5623 5626 5629 5631 5632 5636 5642 5647 5651 5655 5659 5663 5667 5671 5675 5678 5681 5684 5687 5690 5692 5695 5699 5703 5707 5710 5712 5713 5713 5714 5714 5714 5715 5716 5716 5716 5716 5716 5716 5717 5716 5715 5713 5711 5711 5712 5711 5709 5708 5709 5710 5709 5708 5706 5704 5704 5703 5703 5703 5702 5700 5699 5697 5695 5693 5691 5689 5687 5685 5683 5680 5679 5677 5674 5671 5669 5666 5664
5596 5600 5603 5606 5609 5611 5612 5615 5618 5621 5623 5626 5631 5636 5639 5643 5648 5651 5655 5660 5664 5668 5671 5675 5678 5681 5684 5687 5690 5694 5697 5701 5705 5707 5707 5708 5709 5709 5709 5709 5710 5710 5710 5711 5711 5711 5710 5709 5707 5706 5705 5706 5706 5705 5703 5704 5705 5705 5705 5703 5702 5701 5700 5699 5699 5699 5698 5697 5695 5693 5691 5689 5687 5686 5684 5682 5679 5677 5675 5673 5671 5668 5666 5663 5661
5590 5592 5596 5601 5604 5606 5607 5610 5612 5615 5618 5622 5627 5630 5632 5636 5641 5645 5650 5655 5659 5662 5666 5670 5674 5677 5680 5682 5685 5688 5692 5697 5701 5703 5702 5702 5702 5702 5702 5703 5705 5705 5705 5705 5705 5704 5704 5702 5700 5699 5699 5700 5700 5699 5699 5700 5700 5700 5699 5699 5698 5697 5696 5695 5695 5694 5694 5693 5692 5690 5687 5685 5684 5682 5680 5678 5676 5674 5671 5669 5667 5665 5663 5660 5658
5584 5586 5590 5594 5598 5600 5602 5605 5607 5611 5616 5619 5622 5625 5626 5629 5633 5639 5645 5649 5652 5656 5660 5664 5668 5671 5674 5676 5679 5682 5687 5693 5697 5697 5695 5694 5694 5695 5696 5698 5700 5699 5699 5700 5699 5698 5697 5696 5694 5693 5693 5694 5694 5694 5694 5695 5695 5695 5695 5694 5694 5693 5692 5691 5691 5690 5689 5689 5688 5686 5683 5682 5680 5679 5677 5675 5673 5671 5669 5666 5664 5662 5659 5657 5655
5580 5582 5585 5589 5592 5594 5597 5601 5603 5607 5611 5614 5616 5619 5621 5623 5626 5631 5637 5641 5645 5650 5654 5658 5661 5664 5666 5669 5672 5677 5682 5687 5689 5688 5686 5685 5686 5689 5691 5694 5694 5694 5694 5694 5693 5692 5692 5691 5689 5688 5688 5688 5688 5688 5689 5690 5690 5691 5690 5690 5689 5689 5688 5687 5687 5686 5686 5685 5684 5682 5680 5678 5677 5675 5673 5671 5669 5668 5666 5664 5661 5659 5657 5655 5652
5578 5579 5581 5584 5587 5589 5594 5598 5600 5602 5604 5607 5609 5612 5615 5619 5622 5625 5629 5634 5639 5644 5648 5651 5654 5657 5659 5662 5666 5671 5676 5679 5679 5678 5678 5680 5682 5684 5686 5688 5688 5688 5688 5687 5686 5686 5687 5687 5685 5685 5685 5683 5683 5683 5684 5685 5685 5686 5686 5685 5685 5684 5684 5683 5683 5682 5682 5681 5679 5678 5676 5675 5673 5672 5670 5668 5666 5664 5662 5660 5658 5656 5654 5652 5649
5575 5576 5577 5579 5582 5586 5590 5593 5595 5597 5600 5603 5605 5608 5610 5614 5618 5620 5623 5629 5634 5638 5642 5645 5647 5650 5653 5656 5660 5664 5667 5669 5670 5671 5673 5676 5677 5679 5680 5682 5682 5682 5682 5681 5681 5681 5682 5681 5681 5680 5680 5678 5677 5677 5679 5679 5680 5680 5681 5680 5680 5680 5679 5679 5679 5678 5678 5676 5675 5674 5673 5671 5670 5668 5666 5664 5663 5661 5659 5657 5655 5653 5651 5649 5647
5571 5572 5574 5576 5579 5582 5586 5588 5591 5594 5597 5600 5603 5604 5606 5610 5613 5616 5618 5623 5628 5632 5635 5638 5641 5644 5646 5649 5653 5656 5659 5661 5664 5666 5668 5670 5672 5673 5675 5676 5677 5676 5676 5675 5676 5676 5676 5676 5675 5676 5675 5674 5672 5671 5673 5674 5674 5675 5675 5675 5675 5676 5675 5674 5674 5674 5674 5672 5671 5670 5669 5667 5666 5665 5663 5661 5659 5658 5655 5653 5651 5650 5649 5647 5644
5568 5570 5572 5574 5576 5578 5581 5584 5587 5590 5594 5598 5600 5601 5603 5606 5609 5611 5614 5617 5622 5626 5629 5632 5635 5638 5640 5643 5647 5650 5653 5655 5658 5660 5662 5663 5665 5667 5669 5670 5671 5671 5670 5670 5671 5671 5671 5671 5671 5670 5670 5669 5667 5666 5667 5668 5669 5669 5670 5670 5671 5672 5671 5670 5670 5670 5669 5668 5667 5666 5665 5663 5662 5661 5660 5658 5656 5654 5652 5650 5648 5647 5645 5643 5641
5566 5567 5569 5571 5573 5575 5578 5581 5584 5587 5591 5594 5595 5597 5599 5602 5605 5607 5609 5613 5617 5621 5624 5628 5631 5633 5635 5638 5642 5645 5647 5649 5652 5653 5655 5656 5658 5661 5663 5664 5665 5666 5665 5665 5665 5665 5665 5665 5665 5665 5664 5663 5662 5662 5662 5663 5663 5664 5665 5666 5667 5667 5667 5666 5666 5665 5665 5664 5663 5663 5662 5660 5658 5657 5656 5654 5652 5651 5649 5646 5645 5643 5642 5640 5638
5562 5563 5564 5566 5568 5572 5575 5577 5579 5583 5585 5586 5588 5589 5592 5596 5600 5602 5604 5608 5612 5615 5618 5621 5624 5627 5630 5633 5636 5638 5641 5643 5645 5647 5648 5650 5652 5655 5657 5659 5660 5660 5659 5659 5659 5658 5658 5659 5659 5659 5659 5658 5657 5656 5656 5657 5658 5659 5660 5662 5663 5663 5663 5662 5661 5661 5661 5660 5659 5658 5658 5657 5655 5653 5652 5651 5649 5647 5645 5643 5642 5640 5639 5637 5635
5559 5560 5561 5562 5563 5566 5569 5571 5574 5578 5579 5579 5581 5584 5586 5589 5593 5595 5598 5602 5606 5610 5613 5615 5617 5621 5625 5627 5629 5632 5634 5636 5638 5640 5642 5645 5647 5650 5652 5653 5654 5654 5654 5653 5653 5653 5652 5653 5653 5653 5652 5653 5653 5653 5652 5652 5653 5654 5655 5657 5658 5659 5658 5658 5657 5657 5656 5655 5654 5653 5652 5652 5651 5649 5648 5647 5645 5643 5642 5640 5639 5637 5635 5634 5632
5555 5557 5558 5558 5558 5560 5564 5566 5569 5573 5573 5573 5576 5579 5581 5583 5585 5588 5591 5596 5600 5604 5609 5612 5615 5618 5620 5621 5623 5625 5628 5630 5631 5634 5638 5641 5643 5644 5645 5646 5647 5648 5648 5648 5648 5647 5646 5647 5647 5648 5647 5647 5648 5648 5648 5648 5649 5650 5651 5653 5654 5654 5653 5653 5653 5653 5652 5651 5650 5649 5648 5647 5647 5646 5644 5643 5641 5639 5638 5637 5635 5634 5632 5630 5628
5552 5553 5555 5555 5555 5558 5560 5563 5566 5568 5568 5568 5571 5574 5575 5578 5581 5584 5588 5592 5596 5600 5604 5608 5611 5614 5614 5615 5617 5620 5622 5625 5627 5629 5633 5635 5636 5637 5638 5640 5641 5642 5642 5641 5641 5641 5642 5641 5641 5642 5643 5642 5642 5642 5643 5643 5644 5645 5647 5648 5649 5648 5648 5648 5648 5648 5647 5647 5646 5645 5644 5643 5643 5642 5640 5639 5637 5636 5635 5633 5632 5631 5629 5627 5625
5549 5550 5551 5552 5553 5555 5558 5560 5563 5565 5565 5565 5567 5569 5572 5576 5580 5583 5586 5589 5592 5596 5599 5602 5605 5607 5607 5609 5613 5615 5617 5619 5621 5623 5626 5629 5630 5631 5632 5633 5635 5636 5636 5635 5635 5635 5636 5636 5635 5637 5638 5637 5637 5638 5638 5637 5638 5641 5643 5643 5642 5643 5643 5643 5643 5642 5642 5642 5642 5641 5640 5639 5638 5637 5636 5634 5633 5632 5631 5630 5629 5627 5625 5624 5622
5547 5547 5547 5548 5550 5552 5554 5556 5559 5561 5563 5564 5565 5568 5571 5575 5579 5581 5583 5586 5589 5592 5595 5597 5600 5602 5602 5603 5606 5609 5611 5613 5615 5617 5620 5622 5624 5625 5626 5626 5627 5629 5630 5630 5629 5629 5630 5630 5629 5631 5633 5632 5632 5633 5633 5632 5634 5636 5637 5637 5637 5638 5638 5638 5638 5637 5637 5637 5637 5636 5635 5634 5634 5633 5631 5630 5629 5628 5627 5626 5625 5623 5622 5620 5618
5543 5544 5544 5545 5546 5547 5550 5552 5554 5557 5559 5561 5563 5566 5568 5572 5575 5578 5580 5583 5586 5589 5591 5594 5596 5598 5597 5597 5599 5603 5605 5607 5609 5611 5613 5616 5617 5619 5620 5620 5620 5621 5622 5623 5623 5623 5623 5623 5622 5624 5626 5627 5627 5627 5626 5627 5629 5631 5631 5632 5633 5634 5634 5633 5633 5633 5633 5632 5632 5631 5630 5630 5629 5628 5627 5626 5625 5624 5623 5622 5621 5619 5618 5616 5615
5539 5540 5541 5542 5543 5544 5546 5548 5550 5552 5554 5557 5559 5561 5564 5566 5569 5572 5575 5577 5580 5583 5586 5588 5591 5592 5591 5592 5593 5596 5598 5600 5601 5603 5606 5609 5611 5613 5613 5613 5614 5614 5615 5617 5617 5617 5617 5617 5617 5618 5620 5622 5622 5622 5621 5622 5625 5626 5626 5627 5628 5628 5628 5628 5628 5628 5628 5628 5627 5626 5626 5625 5625 5624 5622 5622 5621 5620 5619 5618 5617 5615 5614 5612 5611
5537 5537 5538 5539 5540 5541 5542 5544 5546 5548 5550 5552 5554 5557 5559 5561 5564 5566 5569 5571 5573 5576 5579 5581 5583 5584 5585 5586 5587 5589 5591 5592 5594 5596 5598 5601 5603 5605 5606 5606 5607 5608 5609 5610 5611 5611 5612 5612 5612 5613 5614 5616 5617 5617 5617 5618 5620 5621 5621 5621 5622 5623 5623 5623 5624 5624 5623 5622 5622 5621 5621 5621 5620 5619 5618 5617 5617 5616 5615 5614 5613 5612 5610 5608 5607
5535 5535 5535 5536 5536 5537 5539 5540 5542 5544 5546 5547 5550 5552 5554 5557 5559 5561 5563 5565 5566 5568 5571 5573 5574 5576 5577 5579 5580 5582 5583 5584 5586 5588 5591 5593 5595 5597 5599 5599 5600 5601 5602 5603 5604 5605 5605 5606 5607 5608 5609 5611 5612 5612 5612 5613 5615 5616 5616 5616 5617 5618 5618 5619 5619 5619 5618 5617 5617 5616 5616 5615 5615 5615 5614 5613 5612 5611 5611 5610 5609 5607 5606 5604 5603
5533 5533 5534 5534 5534 5534 5536 5537 5538 5539 5541 5543 5545 5547 5549 5551 5553 5555 5557 5559 5560 5562 5564 5565 5567 5568 5569 5571 5573 5574 5575 5577 5579 5581 5583 5586 5588 5589 5591 5592 5593 5594 5596 5598 5598 5598 5598 5598 5600 5602 5603 5604 5605 5606 5607 5609 5610 5612 5613 5612 5611 5611 5612 5613 5614 5613 5613 5612 5612 5612 5611 5610 5610 5610 5609 5609 5608 5607 5606 5605 5604 5603 5602 5600 5599
5530 5531 5531 5531 5531 5531 5532 5533 5534 5535 5537 5538 5540 5542 5543 5545 5547 5549 5551 5552 5554 5555 5557 5558 5560 5561 5563 5564 5566 5567 5568 5570 5572 5574 5576 5578 5580 5582 5583 5584 5586 5588 5590 5591 5591 5591 5590 5591 5593 5595 5598 5599 5599 5601 5603 5604 5605 5606 5607 5607 5607 5606 5607 5608 5608 5608 5608 5607 5607 5606 5606 5606 5605 5605 5605 5604 5604 5602 5601 5601 5600 5598 5597 5596 5595
5526 5527 5528 5528 5529 5529 5529 5529 5530 5532 5533 5534 5536 5537 5538 5540 5541 5543 5544 5545 5547 5549 5550 5552 5553 5555 5556 5558 5559 5560 5562 5563 5565 5567 5569 5571 5573 5575 5576 5578 5579 5581 5582 5583 5584 5585 5585 5585 5587 5590 5592 5593 5594 5595 5597 5598 5599 5600 5601 5602 5602 5602 5602 5603 5603 5603 5603 5602 5601 5601 5601 5601 5601 5600 5600 5599 5599 5598 5597 5595 5594 5593 5592 5591 5590
5523 5524 5524 5525 5526 5526 5527 5527 5528 5528 5530 5531 5532 5533 5534 5535 5536 5537 5538 5539 5541 5542 5544 5545 5547 5549 5550 5551 5552 5554 5556 5557 5559 5561 5563 5565 5567 5569 5569 5570 5572 5573 5575 5576 5579 5580 5580 5581 5582 5585 5586 5588 5589 5591 5591 5593 5594 5595 5595 5596 5597 5597 5597 5597 5597 5597 5598 5597 5597 5597 5597 5596 5596 5595 5594 5594 5594 5593 5592 5590 5589 5588 5587 5587 5585
5520 5520 5521 5522 5523 5524 5525 5526 5526 5526 5527 5528 5529 5530 5530 5531 5532 5532 5533 5534 5534 5535 5537 5539 5541 5543 5544 5545 5547 5548 5549 5551 5553 5555 5558 5560 5562 5563 5563 5563 5565 5566 5567 5568 5571 5573 5574 5575 5577 5579 5581 5583 5585 5586 5587 5588 5589 5589 5590 5591 5591 5591 5591 5592 5591 5591 5592 5592 5592 5592 5592 5591 5591 5590 5589 5588 5588 5588 5587 5586 5584 5583 5582 5582 5581
5517 5517 5518 5519 5519 5521 5522 5523 5524 5525 5525 5525 5526 5527 5528 5528 5529 5529 5530 5530 5530 5530 5531 5533 5535 5537 5538 5540 5541 5542 5544 5545 5548 5551 5553 5555 5556 5556 5556 5558 5559 5560 5561 5563 5565 5566 5568 5571 5573 5575 5577 5578 5579 5580 5581 5582 5583 5583 5584 5585 5585 5586 5586 5587 5586 5586 5585 5586 5586 5586 5586 5586 5585 5585 5584 5583 5582 5582 5581 5581 5580 5578 5577 5577 5576